| time (UTC) | temp C | wind direction | speed KPH | gust KPH | rain 1hr cm | rain 24hr cm | rain mn cm | humidity % | barometer mb |
| 20260504110520 | 13 | 199 | 1.6 | 1.6 | 0.00 | 0.00 | 0.00 | 74 | 1013.9 |
| 20260504100442 | 13 | 212 | 1.6 | 1.6 | 0.00 | 0.00 | 0.00 | 71 | 1013.6 |
| 20260504081840 | 15 | 188 | 3.2 | 3.2 | 0.00 | 0.00 | 0.00 | 61 | 1013.2 |
| 20260504081337 | 15 | 162 | 1.6 | 3.2 | 0.00 | 0.00 | 0.00 | 61 | 1012.9 |
| 20260504080833 | 15 | 162 | 4.8 | 8.0 | 0.00 | 0.00 | 0.00 | 61 | 1013.0 |
| 20260504080330 | 15 | 155 | 3.2 | 3.2 | 0.00 | 0.00 | 0.00 | 61 | 1012.8 |
| 20260504070258 | 15 | 168 | 6.4 | 9.7 | 0.00 | 0.00 | 0.00 | 57 | 1012.9 |
| 20260504060218 | 16 | 192 | 3.2 | 4.8 | 0.00 | 0.00 | 0.00 | 55 | 1013.4 |
| 20260504050646 | 14 | 161 | 4.8 | 4.8 | 0.00 | 0.00 | 0.00 | 63 | 1014.1 |
| 20260504050143 | 13 | 181 | 1.6 | 1.6 | 0.00 | 0.00 | 0.00 | 63 | 1014.2 |
| 20260504045640 | 13 | 198 | 0.0 | 1.6 | 0.00 | 0.00 | 0.00 | 64 | 1014.2 |
| 20260504045140 | 14 | 188 | 1.6 | 1.6 | 0.00 | 0.00 | 0.00 | 63 | 1014.4 |
| 20260504044638 | 14 | 185 | 1.6 | 3.2 | 0.00 | 0.00 | 0.00 | 63 | 1014.0 |
| 20260504044135 | 14 | 131 | 3.2 | 4.8 | 0.00 | 0.00 | 0.00 | 62 | 1014.3 |
| 20260504043632 | 14 | 184 | 0.0 | 1.6 | 0.00 | 0.00 | 0.00 | 62 | 1014.2 |
| 20260504043129 | 14 | 151 | 3.2 | 3.2 | 0.00 | 0.00 | 0.00 | 61 | 1014.3 |
| 20260504042626 | 15 | 137 | 3.2 | 3.2 | 0.00 | 0.00 | 0.00 | 61 | 1014.5 |
| 20260504042123 | 15 | 197 | 1.6 | 1.6 | 0.00 | 0.00 | 0.00 | 60 | 1014.5 |
| 20260504041618 | 15 | 141 | 1.6 | 1.6 | 0.00 | 0.00 | 0.00 | 59 | 1014.7 |
| 20260504041115 | 15 | 163 | 1.6 | 1.6 | 0.00 | 0.00 | 0.00 | 59 | 1014.6 |
| 20260504040612 | 15 | 176 | 3.2 | 3.2 | 0.00 | 0.00 | 0.00 | 59 | 1014.6 |
| 20260504040109 | 15 | 167 | 0.0 | 1.6 | 0.00 | 0.00 | 0.00 | 58 | 1014.5 |
| 20260504035606 | 15 | 200 | 6.4 | 11.3 | 0.00 | 0.00 | 0.00 | 57 | 1014.6 |
| 20260504035102 | 15 | 188 | 1.6 | 1.6 | 0.00 | 0.00 | 0.00 | 57 | 1014.8 |
| 20260504034600 | 15 | 84 | 3.2 | 4.8 | 0.00 | 0.00 | 0.00 | 57 | 1014.7 |
| 20260504034057 | 15 | 175 | 1.6 | 1.6 | 0.00 | 0.00 | 0.00 | 57 | 1014.5 |
| 20260504033555 | 15 | 158 | 3.2 | 4.8 | 0.00 | 0.00 | 0.00 | 56 | 1014.9 |
| 20260504033052 | 15 | 189 | 1.6 | 1.6 | 0.00 | 0.00 | 0.00 | 57 | 1014.9 |
| 20260504032549 | 15 | 200 | 1.6 | 1.6 | 0.00 | 0.00 | 0.00 | 58 | 1014.8 |
| 20260504032045 | 15 | 189 | 0.0 | 1.6 | 0.00 | 0.00 | 0.00 | 57 | 1015.1 |
| 20260504031542 | 15 | 183 | 1.6 | 1.6 | 0.00 | 0.00 | 0.00 | 57 | 1015.1 |
| 20260504031038 | 15 | 169 | 0.0 | 1.6 | 0.00 | 0.00 | 0.00 | 56 | 1015.3 |
| 20260504030536 | 15 | 172 | 1.6 | 3.2 | 0.00 | 0.00 | 0.00 | 56 | 1015.3 |
| 20260504030032 | 15 | 171 | 1.6 | 3.2 | 0.00 | 0.00 | 0.00 | 56 | 1015.3 |
| 20260504025529 | 15 | 138 | 1.6 | 3.2 | 0.00 | 0.00 | 0.00 | 56 | 1015.3 |
| 20260504025026 | 15 | 190 | 1.6 | 1.6 | 0.00 | 0.00 | 0.00 | 56 | 1015.2 |
| 20260504024523 | 15 | 179 | 1.6 | 1.6 | 0.00 | 0.00 | 0.00 | 56 | 1015.4 |
| 20260504024020 | 15 | 163 | 1.6 | 3.2 | 0.00 | 0.00 | 0.00 | 56 | 1015.2 |
| 20260504023517 | 15 | 183 | 0.0 | 1.6 | 0.00 | 0.00 | 0.00 | 56 | 1015.3 |
| 20260504023012 | 15 | 127 | 0.0 | 1.6 | 0.00 | 0.00 | 0.00 | 56 | 1015.3 |
| 20260504022508 | 15 | 178 | 0.0 | 1.6 | 0.00 | 0.00 | 0.00 | 55 | 1015.3 |
| 20260504022005 | 16 | 187 | 1.6 | 1.6 | 0.00 | 0.00 | 0.00 | 55 | 1015.4 |
| 20260504021503 | 16 | 177 | 0.0 | 0.0 | 0.00 | 0.00 | 0.00 | 55 | 1015.4 |
| 20260504020959 | 16 | 167 | 1.6 | 1.6 | 0.00 | 0.00 | 0.00 | 54 | 1015.4 |
| 20260504020456 | 16 | 172 | 1.6 | 1.6 | 0.00 | 0.00 | 0.00 | 54 | 1015.2 |
| 20260504015953 | 16 | 184 | 0.0 | 0.0 | 0.00 | 0.00 | 0.00 | 53 | 1015.4 |
| 20260504015449 | 16 | 92 | 3.2 | 3.2 | 0.00 | 0.00 | 0.00 | 53 | 1015.4 |
| 20260504014945 | 16 | 72 | 3.2 | 3.2 | 0.00 | 0.00 | 0.00 | 53 | 1015.2 |
| 20260504014441 | 16 | 179 | 1.6 | 1.6 | 0.00 | 0.00 | 0.00 | 54 | 1015.3 |
| 20260504013938 | 16 | 189 | 1.6 | 1.6 | 0.00 | 0.00 | 0.00 | 54 | 1015.3 |
| 20260504013437 | 16 | 182 | 0.0 | 1.6 | 0.00 | 0.00 | 0.00 | 54 | 1015.3 |
| 20260504012932 | 16 | 180 | 0.0 | 0.0 | 0.00 | 0.00 | 0.00 | 53 | 1015.5 |
| 20260504012431 | 16 | 180 | 0.0 | 0.0 | 0.00 | 0.00 | 0.00 | 52 | 1015.6 |
| 20260504011928 | 16 | 182 | 0.0 | 0.0 | 0.00 | 0.00 | 0.00 | 51 | 1015.6 |
| 20260504011425 | 16 | 193 | 0.0 | 0.0 | 0.00 | 0.00 | 0.00 | 50 | 1015.2 |
| 20260504010920 | 17 | 189 | 0.0 | 0.0 | 0.00 | 0.00 | 0.00 | 49 | 1015.2 |
| 20260504010416 | 17 | 184 | 0.0 | 1.6 | 0.00 | 0.00 | 0.00 | 48 | 1015.2 |
| 20260504005913 | 17 | 187 | 0.0 | 0.0 | 0.00 | 0.00 | 0.00 | 48 | 1015.3 |
| 20260504005409 | 17 | 157 | 4.8 | 8.0 | 0.00 | 0.00 | 0.00 | 47 | 1015.2 |
| 20260504004907 | 17 | 180 | 1.6 | 1.6 | 0.00 | 0.00 | 0.00 | 47 | 1015.0 |
| 20260504004405 | 17 | 185 | 0.0 | 1.6 | 0.00 | 0.00 | 0.00 | 46 | 1015.1 |
| 20260504003901 | 18 | 196 | 1.6 | 1.6 | 0.00 | 0.00 | 0.00 | 46 | 1015.2 |
| 20260504003358 | 18 | 145 | 4.8 | 4.8 | 0.00 | 0.00 | 0.00 | 45 | 1015.1 |
| 20260504002854 | 18 | 178 | 8.0 | 11.3 | 0.00 | 0.00 | 0.00 | 44 | 1015.0 |
| 20260504002351 | 18 | 156 | 8.0 | 11.3 | 0.00 | 0.00 | 0.00 | 44 | 1014.9 |
| 20260504001849 | 18 | 144 | 11.3 | 14.5 | 0.00 | 0.00 | 0.00 | 44 | 1014.8 |
| 20260504001346 | 18 | 148 | 8.0 | 12.9 | 0.00 | 0.00 | 0.00 | 43 | 1014.8 |
| 20260504000843 | 18 | 181 | 11.3 | 12.9 | 0.00 | 0.00 | 0.00 | 43 | 1014.8 |
| 20260504000340 | 18 | 137 | 12.9 | 16.1 | 0.00 | 0.00 | 0.00 | 43 | 1015.0 |
| 20260503235837 | 19 | 171 | 4.8 | 4.8 | 0.00 | 0.00 | 0.00 | 43 | 1014.8 |
| 20260503235335 | 19 | 148 | 11.3 | 12.9 | 0.00 | 0.00 | 0.00 | 42 | 1014.7 |
| 20260503234832 | 19 | 145 | 8.0 | 11.3 | 0.00 | 0.00 | 0.00 | 42 | 1014.8 |
| 20260503234330 | 20 | 99 | 6.4 | 8.0 | 0.00 | 0.00 | 0.00 | 42 | 1015.0 |
| 20260503233828 | 20 | 144 | 6.4 | 9.7 | 0.00 | 0.00 | 0.00 | 41 | 1014.9 |
| 20260503233323 | 20 | 203 | 9.7 | 12.9 | 0.00 | 0.00 | 0.00 | 40 | 1015.0 |
| 20260503232820 | 20 | 159 | 12.9 | 14.5 | 0.00 | 0.00 | 0.00 | 40 | 1014.8 |
| 20260503232317 | 20 | 160 | 12.9 | 16.1 | 0.00 | 0.00 | 0.00 | 40 | 1014.8 |
| 20260503231815 | 20 | 161 | 9.7 | 14.5 | 0.00 | 0.00 | 0.00 | 41 | 1014.9 |
| 20260503231312 | 20 | 191 | 9.7 | 12.9 | 0.00 | 0.00 | 0.00 | 41 | 1015.0 |
| 20260503230808 | 20 | 184 | 4.8 | 4.8 | 0.00 | 0.00 | 0.00 | 41 | 1015.3 |
| 20260503230305 | 20 | 168 | 8.0 | 11.3 | 0.00 | 0.00 | 0.00 | 40 | 1015.3 |
| 20260503225803 | 20 | 161 | 9.7 | 17.7 | 0.00 | 0.00 | 0.00 | 40 | 1015.6 |
| 20260503225258 | 20 | 147 | 9.7 | 14.5 | 0.00 | 0.00 | 0.00 | 40 | 1015.4 |
| 20260503224755 | 20 | 144 | 12.9 | 20.9 | 0.00 | 0.00 | 0.00 | 40 | 1015.4 |
| 20260503224252 | 20 | 143 | 8.0 | 14.5 | 0.00 | 0.00 | 0.00 | 40 | 1015.7 |
| 20260503223750 | 20 | 204 | 4.8 | 8.0 | 0.00 | 0.00 | 0.00 | 40 | 1015.6 |
| 20260503223247 | 20 | 120 | 9.7 | 12.9 | 0.00 | 0.00 | 0.00 | 39 | 1015.7 |
| 20260503222743 | 20 | 179 | 8.0 | 9.7 | 0.00 | 0.00 | 0.00 | 40 | 1015.7 |
| 20260503222241 | 20 | 118 | 9.7 | 14.5 | 0.00 | 0.00 | 0.00 | 40 | 1016.0 |
| 20260503221739 | 20 | 109 | 8.0 | 11.3 | 0.00 | 0.00 | 0.00 | 40 | 1016.1 |
| 20260503221237 | 20 | 148 | 17.7 | 25.7 | 0.00 | 0.00 | 0.00 | 39 | 1016.1 |
| 20260503220733 | 20 | 159 | 16.1 | 22.5 | 0.00 | 0.00 | 0.00 | 40 | 1016.3 |
| 20260503220230 | 20 | 142 | 11.3 | 16.1 | 0.00 | 0.00 | 0.00 | 40 | 1016.1 |
| 20260503215727 | 20 | 158 | 9.7 | 12.9 | 0.00 | 0.00 | 0.00 | 39 | 1016.2 |
| 20260503215224 | 20 | 174 | 6.4 | 9.7 | 0.00 | 0.00 | 0.00 | 41 | 1016.3 |
| 20260503214722 | 20 | 139 | 9.7 | 12.9 | 0.00 | 0.00 | 0.00 | 40 | 1016.4 |
| 20260503214218 | 20 | 202 | 9.7 | 16.1 | 0.00 | 0.00 | 0.00 | 40 | 1016.6 |
| 20260503213717 | 20 | 161 | 4.8 | 8.0 | 0.00 | 0.00 | 0.00 | 40 | 1016.6 |
| 20260503213214 | 20 | 238 | 4.8 | 9.7 | 0.00 | 0.00 | 0.00 | 40 | 1016.7 |
| 20260503212710 | 20 | 145 | 14.5 | 17.7 | 0.00 | 0.00 | 0.00 | 39 | 1016.9 |
| 20260503212208 | 20 | 185 | 16.1 | 20.9 | 0.00 | 0.00 | 0.00 | 39 | 1016.8 |
| 20260503211706 | 20 | 152 | 17.7 | 24.1 | 0.00 | 0.00 | 0.00 | 40 | 1017.0 |
| 20260503211201 | 20 | 128 | 4.8 | 8.0 | 0.00 | 0.00 | 0.00 | 41 | 1017.3 |
| 20260503210657 | 20 | 91 | 11.3 | 17.7 | 0.00 | 0.00 | 0.00 | 41 | 1017.4 |
| 20260503210155 | 20 | 132 | 8.0 | 11.3 | 0.00 | 0.00 | 0.00 | 40 | 1017.6 |
| 20260503205650 | 20 | 174 | 17.7 | 20.9 | 0.00 | 0.00 | 0.00 | 39 | 1017.5 |
| 20260503205146 | 20 | 147 | 9.7 | 12.9 | 0.00 | 0.00 | 0.00 | 41 | 1017.6 |
| 20260503204643 | 19 | 152 | 4.8 | 8.0 | 0.00 | 0.00 | 0.00 | 41 | 1017.8 |
| 20260503204141 | 20 | 158 | 6.4 | 9.7 | 0.00 | 0.00 | 0.00 | 41 | 1017.8 |
| 20260503203637 | 19 | 226 | 17.7 | 22.5 | 0.00 | 0.00 | 0.00 | 41 | 1018.2 |
| 20260503203135 | 19 | 198 | 16.1 | 17.7 | 0.00 | 0.00 | 0.00 | 40 | 1018.1 |
| 20260503202632 | 19 | 151 | 4.8 | 9.7 | 0.00 | 0.00 | 0.00 | 42 | 1018.4 |
| 20260503202130 | 19 | 185 | 8.0 | 12.9 | 0.00 | 0.00 | 0.00 | 42 | 1018.3 |
| 20260503201628 | 20 | 132 | 9.7 | 16.1 | 0.00 | 0.00 | 0.00 | 42 | 1018.7 |
| 20260503201125 | 19 | 160 | 11.3 | 14.5 | 0.00 | 0.00 | 0.00 | 42 | 1018.8 |
| 20260503200621 | 19 | 204 | 8.0 | 12.9 | 0.00 | 0.00 | 0.00 | 42 | 1018.8 |
| 20260503200118 | 19 | 136 | 9.7 | 17.7 | 0.00 | 0.00 | 0.00 | 43 | 1018.8 |
| 20260503195615 | 19 | 125 | 3.2 | 4.8 | 0.00 | 0.00 | 0.00 | 45 | 1018.8 |
| 20260503195112 | 19 | 152 | 19.3 | 22.5 | 0.00 | 0.00 | 0.00 | 43 | 1019.0 |
| 20260503194609 | 18 | 174 | 6.4 | 9.7 | 0.00 | 0.00 | 0.00 | 45 | 1019.2 |
| 20260503194103 | 19 | 152 | 9.7 | 12.9 | 0.00 | 0.00 | 0.00 | 43 | 1019.1 |
| 20260503193601 | 18 | 131 | 11.3 | 14.5 | 0.00 | 0.00 | 0.00 | 44 | 1019.4 |
| 20260503193056 | 19 | 176 | 6.4 | 12.9 | 0.00 | 0.00 | 0.00 | 44 | 1019.4 |
| 20260503192553 | 19 | 190 | 11.3 | 16.1 | 0.00 | 0.00 | 0.00 | 45 | 1019.4 |
| 20260503192049 | 19 | 122 | 11.3 | 17.7 | 0.00 | 0.00 | 0.00 | 42 | 1019.6 |
| 20260503191545 | 19 | 90 | 12.9 | 16.1 | 0.00 | 0.00 | 0.00 | 43 | 1019.9 |
| 20260503191042 | 18 | 167 | 9.7 | 11.3 | 0.00 | 0.00 | 0.00 | 44 | 1019.7 |
| 20260503190539 | 18 | 152 | 8.0 | 9.7 | 0.00 | 0.00 | 0.00 | 44 | 1019.7 |
| 20260503190037 | 19 | 97 | 12.9 | 16.1 | 0.00 | 0.00 | 0.00 | 43 | 1019.8 |
| 20260503185533 | 18 | 160 | 12.9 | 17.7 | 0.00 | 0.00 | 0.00 | 46 | 1020.2 |
| 20260503185032 | 18 | 107 | 9.7 | 14.5 | 0.00 | 0.00 | 0.00 | 45 | 1020.1 |
| 20260503184529 | 18 | 161 | 11.3 | 12.9 | 0.00 | 0.00 | 0.00 | 45 | 1020.3 |
| 20260503184025 | 18 | 193 | 11.3 | 16.1 | 0.00 | 0.00 | 0.00 | 44 | 1020.6 |
| 20260503183522 | 18 | 154 | 4.8 | 9.7 | 0.00 | 0.00 | 0.00 | 46 | 1020.6 |
| 20260503183020 | 18 | 175 | 9.7 | 12.9 | 0.00 | 0.00 | 0.00 | 47 | 1020.7 |
| 20260503182518 | 18 | 143 | 9.7 | 12.9 | 0.00 | 0.00 | 0.00 | 46 | 1020.6 |
| 20260503182015 | 18 | 174 | 8.0 | 11.3 | 0.00 | 0.00 | 0.00 | 46 | 1020.6 |
| 20260503181512 | 17 | 183 | 8.0 | 11.3 | 0.00 | 0.00 | 0.00 | 48 | 1020.7 |
| 20260503181008 | 17 | 131 | 17.7 | 22.5 | 0.00 | 0.00 | 0.00 | 47 | 1021.0 |
| 20260503180506 | 17 | 143 | 17.7 | 22.5 | 0.00 | 0.00 | 0.00 | 46 | 1021.3 |
| 20260503180002 | 17 | 135 | 11.3 | 17.7 | 0.00 | 0.00 | 0.00 | 48 | 1021.3 |
| 20260503175500 | 16 | 92 | 8.0 | 11.3 | 0.00 | 0.00 | 0.00 | 49 | 1021.4 |
| 20260503174957 | 17 | 189 | 6.4 | 8.0 | 0.00 | 0.00 | 0.00 | 47 | 1021.4 |
| 20260503174454 | 17 | 101 | 6.4 | 14.5 | 0.00 | 0.00 | 0.00 | 46 | 1021.7 |
| 20260503173949 | 17 | 193 | 3.2 | 4.8 | 0.00 | 0.00 | 0.00 | 48 | 1021.8 |
| 20260503173445 | 17 | 151 | 8.0 | 11.3 | 0.00 | 0.00 | 0.00 | 48 | 1021.9 |
| 20260503172942 | 17 | 144 | 4.8 | 8.0 | 0.00 | 0.00 | 0.00 | 48 | 1021.9 |
| 20260503172440 | 17 | 112 | 9.7 | 11.3 | 0.00 | 0.00 | 0.00 | 47 | 1022.0 |
| 20260503171936 | 17 | 106 | 8.0 | 11.3 | 0.00 | 0.00 | 0.00 | 47 | 1021.9 |
| 20260503171433 | 17 | 140 | 14.5 | 17.7 | 0.00 | 0.00 | 0.00 | 45 | 1022.0 |
| 20260503170931 | 17 | 153 | 4.8 | 8.0 | 0.00 | 0.00 | 0.00 | 46 | 1022.2 |
| 20260503170426 | 17 | 130 | 8.0 | 9.7 | 0.00 | 0.00 | 0.00 | 47 | 1022.1 |
| 20260503150819 | 15 | 132 | 6.4 | 8.0 | 0.00 | 0.00 | 0.00 | 51 | 1023.1 |
| 20260503150315 | 15 | 52 | 4.8 | 8.0 | 0.00 | 0.00 | 0.00 | 50 | 1023.1 |
| 20260503140239 | 12 | 161 | 3.2 | 4.8 | 0.00 | 0.00 | 0.00 | 65 | 1023.2 |
| 20260503131209 | 11 | 92 | 4.8 | 9.7 | 0.00 | 0.00 | 0.00 | 73 | 1023.2 |
| 20260503130707 | 10 | 155 | 1.6 | 3.2 | 0.00 | 0.00 | 0.00 | 76 | 1023.3 |
| 20260503130204 | 10 | 129 | 4.8 | 4.8 | 0.00 | 0.00 | 0.00 | 77 | 1023.3 |